Погода в Котласе

Погода в Котласе : погода сейчас, прогноз погоды и архив. Всё, что Вы хотите узнать о погоде в Котласе!

Поиск расширенной информации на нашем сайте:

Другие новости

Новости СМИ2

Главная страница сайта

Новости сайта

03.07.2017

Напоминаем, что на нашем специализированном сайте Метеоцентр.Азия вы можете получить высокодетализированные автоматические прогнозы погоды по пунктам России, СНГ и мира в авиационном формате (включающие направление и скорость ветра, видимость, явления погоды, количество и форму облачности, нижнюю и верхнюю границу облачности).


Погода в Котласе - сегодня

Время (UTC), дата Ветер
(°,м/с) 
Видим.   Явления Облачность Т
(°С)
Тd
(°С)
f(%) Тe
(°С)
Pmin
(гПа)
dP
(гПа)
Po
(мм)
O2
(г/м3)
Тmin Tmax R s Состояние
почвы
03 21.09.17 020 (С) 20000 м    10/10 270 м 
[St]
+4.6 +3.4 92 +4  1030.7  768  304  +4.5        влажная 
06 21.09.17 360 (С) 20000 м    10/10 210 м 
[Sc]
+4.6 +3.6 93 +4  1033.1  2.4  770  304  +4.4         
09 21.09.17 360 (С) 20000 м    4/3 600 м средняя 
[Sc|Ac trans]
+8 +3.2 72 +8  1033.4  0.5  770  301           
12 21.09.17 020 (С) 20000 м    8/6 1050 м средняя 
[Sc|Ac trans]
+10 +4.1 67 +10  1035.1  1.7  771  299           
15 21.09.17 нст () 20000 м    1/1 600 м 
[Sc]
+7.2 +4.5 83 +8  1036.1  772  302    +10.4       
18 21.09.17 нст () 6000 м  дымка  3/0 верхняя 
[Ci fib]
+1.6 +1.3 98 +2  1037.4  0.9  773  309           
21 21.09.17 тихо ()   6000 м  дымка  3/0 верхняя 
[Ci fib]
-0.5 -0.8 98 -1  1039  1.6  774  312           
00 22.09.17 тихо ()   0600 м  туман  ?/? 60 
-0.3 -0.3 100 -0  1039.9  0.9  774  312           
03 22.09.17 тихо ()   0100 м  туман  ?/? 60 
+0.8 +0.8 100 +1  1041.3  1.4  776  311  -1.1        влажная 
06 22.09.17 тихо ()   0200 м  туман  ?/? 60 
+2.2 +2.2 100 +2  1041.7  0.6  776  310           
09 22.09.17 нст () 6000 м  дымка{туман}  10/10 120 м 
[St]
+4.1 +3.9 99 +5  1041.8  -0.2  776  307           
12 22.09.17 нст () 6000 м  дымка{туман}  10/8 240 м средняя 
[St|Ac und]
+5.4 +3.5 88 +6  1041.4  -0.1  776  306           
15 22.09.17 200 (Ю) 6000 м  дымка  10/8 330 м средняя 
[St|Ac und]
+4.6 +3.6 93 +5  1039.7  -1.7  774  306    +6       
18 22.09.17 150 (ЮВ) 4100 м  дымка  4/0 верхняя 
[Ci fib]
+0.6 +0.3 98 +1  1038.7  -1.2  774  311           
21 22.09.17 200 (Ю) 5000 м  дымка  10/8 240 м средняя 
[St|Ac und]
+3.5 +3.3 99 +4  1038  -0.5  773  307           
00 23.09.17 220 (ЮЗ) 6000 м  дымка  10/10 210 м 
[St]
+3.8 +3.3 97 +5  1038.1  0.1  773  307           
03 23.09.17 210 (ЮЗ) 6000 м  дымка  10/4 300 м средняя 
[St|Ac und]
+3.6 +2.9 95 +4  1037.6  -0.5  773  307  +0.1        влажная 
06 23.09.17 230 (ЮЗ) 20000 м    8/3 600 м средняя, верхняя 
[Sc|Ac trans|Ci fib]
+6 +3.6 85 +7  1037.3  -0.3  773  304           
09 23.09.17 310 (СЗ) 20000 м    4/4 600 м 
[Sc]
+11 +6.1 72 +12  1037  -0.2  773  298           
12 23.09.17 310 (СЗ) 20000 м    10/5 1000 м средняя 
[Sc|Ac und]
+10.9 +5.5 69 +11  1036.3  -0.6  772  298           
15 23.09.17 тихо ()   20000 м    10/4 1000 м средняя 
[Sc|Ac und]
+9.2 +8.1 93 +9  1035.9  -0.4  772  299    +12.1       
18 23.09.17 350 (С) 10 км  слаб. ливневой дождь  10/6 800 м кучево-дожд., средняя 
[Cb cap|Ac und]
+7.4 +7.1 98 +8  1037.1  1.1  773  302           
21 23.09.17 340 (С) 10 км  {ливн. осадки}  10/5 600 м средняя 
[Sc|Ac und]
+6.5 +6.1 97 +6  1038.6  1.5  774  304           
00 24.09.17 310 (СЗ) 10 км  {ливн. осадки}  10/6 930 м средняя 
[Sc|Ac und]
+6 +5.3 95 +7  1040.1  1.4  775  305           
03 24.09.17 360 (С) 20000 м    10/8 500 м средняя 
[Sc|Ac und]
+6 +5.8 99 +7  1041.5  1.4  776  305  +6      влажная 
Время (UTC), дата Ветер
(°,м/с) 
Видим.   Явления Облачность Т
(°С)
Тd
(°С)
f(%) Тe
(°С)
Pmin
(гПа)
dP
(гПа)
Po
(мм)
O2
(г/м3)
Тmin Tmax R s Состояние
почвы

Для получения пояснительной информации подведите курсор к названию столбца.

ПОГОДА в Котласе - архив

Всё, что Вы хотите узнать о погоде в Котласе - удобно и подробно!

Выберите нужную дату (начиная с 1 января 2015* года) и нажмите кнопку "Найти".
Будут отображены архивные сводки погоды по пункту Котлас, начиная с указанной даты.


Отображать данные в формате CSV (для использования в таблицах Excel)


Внимание! Наш архив погоды предназначен исключительно для личного некоммерческого использования в познавательных целях. Если Вам необходимы официальные справки о состоянии погоды (для производственных, юридических, коммерческих и т.п. целей), обращайтесь в органы Росгидромета.

*Примечание: данная дата относится к архиву по метеостанциям СССР (Россия, СНГ, Балтия).
Архив по метеостанциям Зарубежной Европы и Азии (кроме Китая) хранится 10 дней, по другим регионам земного шара (Китай, Африка, Америка, Австралия, Океания) - 1 день.

Котлас - район местоположения метеостанции


Название, широта, долгота, высота метеостанции:
Котлас 61.2°ш. 46.7°д. 56 м над ур. моря [Российская Федерация]

Дополнительная информация

В oтличие oт бoльшинства пoгoдных сайтoв мы публикуем пoдрoбную метеoинфoрмацию в детальнoм прoфессиoнальнoм фoрмате.

Характеристики температуры и влажнoсти вoздуха измеряются на высoте 2 м в тени вдали oт зданий и деревьев.
Скoрoсть ветра измеряется на высoте 10 м (на урoвне рoста челoвека скoрoсть ветра ниже в 1.5-2 раза). Если метеoстанция нахoдится в гoрoде или в лесу, тo скoрoсть ветра занижена на 2-4 м/с пo сравнению с oткрытым местoм. Скoрoсть ветра над акватoриями крупных рек и oзёр, а также на вершинах хoлмoв на 2-5 м/с выше, чем в oбычных услoвиях.
Атмoсфернoе давление в разных тoчках местнoсти мoжет значительнo oтличаться oт давления на метеoстанции, в зависимoсти oт услoвий рельефа (при пoдъёме на 10 м давление пoнижается примернo на 1 мм рт.ст.).